Bloomington, IL

7:00 AM CDT on April 19, 2018 (GMT -0500)
Central Ill Regional

Weather History for KBMI - January, 2014

Change the Weather History Date:

Saturday, January 11, 2014

  Actual Average Record
Temperature  
Mean Temperature 32 °F -  
Max Temperature 37 °F 15 °F 59 °F (2018)
Min Temperature 28 °F -1 °F -17 °F (1977)
Degree Days  
Heating Degree Days 32    
Moisture  
Dew Point 31 °F    
Average Humidity 92    
Maximum Humidity 100    
Minimum Humidity 75    
Precipitation  
Precipitation 0.10 in - - ()
Sea Level Pressure  
Sea Level Pressure 29.60 in    
Wind  
Wind Speed 14 mph (West)    
Max Wind Speed 24 mph    
Max Gust Speed 32 mph    
Visibility 4 miles    
Events Fog , Rain , Snow    
Averages and records for this station are not official NWS values.
T = Trace of Precipitation, MM = Missing Value Source: NWS Daily Summary

Daily Weather History Graph

Daily Weather History Graph

Search for Another Location

Airport or City:

Trip Planner

Search our weather history database for the weather conditions in past years. The results will help you decide how hot, cold, wet, or windy it might be!

Date:

Astronomy

Jan. 11, 2014 Rise Set
Actual Time 7:18 AM CST 4:49 PM CST
Civil Twilight 6:48 AM CST 5:19 PM CST
Nautical Twilight 6:14 AM CST 5:53 PM CST
Astronomical Twilight 5:41 AM CST 6:26 PM CST
Moon 1:33 PM CST (1/11) 3:22 AM CST (1/11)
Length of Visible Light 10h 31m
Length of Day
9h 31m
Waxing Gibbous, 83% of the Moon is Illuminated
Jan 11
Waxing Gibbous
Jan 15
Full
Jan 23
Last Quarter
Jan 30
New
Feb 6
First Quarter

Hourly Weather History & Observations

Time (CST) Temp. Windchill Dew Point Humidity Pressure Visibility Wind Dir Wind Speed Gust Speed Precip Events Conditions
12:01 AM 37.4 °F 29.3 °F 35.6 °F 93% 29.52 in 0.2 mi South 12.7 mph - 0.00 in Fog Fog
12:56 AM 37.9 °F 29.6 °F 36.9 °F 96% 29.53 in 0.5 mi SSW 13.8 mph - 0.04 in Fog , Rain Light Rain
1:16 AM 37.4 °F 29.8 °F 37.4 °F 100% 29.48 in 0.2 mi SSW 11.5 mph - 0.01 in Fog , Rain Light Rain
1:42 AM 37.4 °F 28.9 °F 37.4 °F 100% 29.48 in 0.8 mi SSW 13.8 mph - 0.04 in Rain Light Rain
1:45 AM 37.4 °F 29.3 °F 37.4 °F 100% 29.48 in 1.2 mi SSW 12.7 mph - 0.04 in Rain Light Rain
1:56 AM 37.9 °F 30.0 °F 36.9 °F 96% 29.52 in 1.2 mi SSW 12.7 mph - 0.04 in Rain Light Rain
2:18 AM 37.4 °F 28.9 °F 37.4 °F 100% 29.48 in 1.8 mi SW 13.8 mph - 0.02 in Rain Light Rain
2:33 AM 37.4 °F 29.8 °F 37.4 °F 100% 29.48 in 1.0 mi WSW 11.5 mph - 0.02 in Rain Light Rain
2:41 AM 37.4 °F 29.3 °F 35.6 °F 93% 29.48 in 0.5 mi WSW 12.7 mph - 0.02 in Fog , Rain Light Rain
2:56 AM 36.9 °F 29.6 °F 36.0 °F 97% 29.52 in 0.5 mi WSW 10.4 mph - 0.02 in Fog Fog
3:09 AM 37.4 °F 30.8 °F 35.6 °F 93% 29.47 in 0.2 mi WSW 9.2 mph - N/A Fog Fog
3:27 AM 35.6 °F 28.6 °F 35.6 °F 100% 29.47 in 0.2 mi WSW 9.2 mph - N/A Fog Fog
3:56 AM 36.0 °F 29.0 °F 34.9 °F 96% 29.51 in 0.2 mi WSW 9.2 mph - N/A Fog Fog
4:22 AM 35.6 °F 28.6 °F 35.6 °F 100% 29.48 in 0.2 mi West 9.2 mph - N/A Fog Fog
4:35 AM 35.6 °F 27.1 °F 35.6 °F 100% 29.49 in 0.2 mi West 12.7 mph - N/A Fog Fog
4:56 AM 34.9 °F 25.3 °F 34.0 °F 97% 29.53 in 0.2 mi West 15.0 mph - N/A Fog Fog
4:58 AM 35.6 °F 25.5 °F 33.8 °F 93% 29.49 in 0.2 mi West 17.3 mph - N/A Fog Fog
5:12 AM 33.8 °F 25.8 °F 33.8 °F 100% 29.49 in 0.5 mi West 10.4 mph - N/A Fog Fog
5:20 AM 33.8 °F 23.9 °F 33.8 °F 100% 29.50 in 0.2 mi West 15.0 mph 19.6 mph N/A Fog Fog
5:29 AM 33.8 °F 23.9 °F 33.8 °F 100% 29.50 in 0.2 mi West 15.0 mph - N/A Fog Fog
5:35 AM 33.8 °F 24.8 °F 32.0 °F 93% 29.50 in 0.2 mi West 12.7 mph - N/A Fog Fog
5:56 AM 32.9 °F 22.4 °F 32.0 °F 96% 29.55 in 0.5 mi West 16.1 mph 20.7 mph N/A Fog Fog
6:22 AM 33.8 °F 24.8 °F 32.0 °F 93% 29.52 in 0.2 mi West 12.7 mph - N/A Fog Fog
6:41 AM 32.0 °F 20.5 °F 32.0 °F 100% 29.53 in 0.5 mi West 18.4 mph 26.5 mph N/A Fog Fog
6:45 AM 32.0 °F 20.5 °F 32.0 °F 100% 29.53 in 1.0 mi West 18.4 mph 26.5 mph N/A   Overcast
6:47 AM 32.0 °F 20.8 °F 30.2 °F 93% 29.53 in 1.8 mi West 17.3 mph 26.5 mph N/A   Overcast
6:49 AM 32.0 °F 21.2 °F 30.2 °F 93% 29.53 in 4.0 mi West 16.1 mph - N/A   Overcast
6:56 AM 32.0 °F 22.1 °F 31.1 °F 96% 29.57 in 6.0 mi West 13.8 mph - N/A   Overcast
7:15 AM 32.0 °F 20.8 °F 30.2 °F 93% 29.53 in 7.0 mi West 17.3 mph - N/A   Overcast
7:49 AM 30.2 °F 18.9 °F 30.2 °F 100% 29.55 in 8.0 mi West 16.1 mph - 0.00 in   Overcast
7:56 AM 31.1 °F 20.1 °F 30.0 °F 96% 29.60 in 3.0 mi West 16.1 mph - 0.00 in Snow Light Snow
8:17 AM 30.2 °F 20.2 °F 30.2 °F 100% 29.57 in 4.0 mi West 12.7 mph - 0.00 in   Overcast
8:33 AM 30.2 °F 18.9 °F 30.2 °F 100% 29.57 in 2.5 mi West 16.1 mph - 0.00 in Snow Light Snow
8:42 AM 30.2 °F 18.5 °F 30.2 °F 100% 29.58 in 4.0 mi West 17.3 mph 25.3 mph 0.00 in Snow Light Snow
8:56 AM 31.1 °F 19.7 °F 30.0 °F 96% 29.62 in 5.0 mi West 17.3 mph 26.5 mph 0.00 in   Overcast
9:56 AM 31.1 °F 19.7 °F 29.1 °F 92% 29.65 in 4.0 mi West 17.3 mph 25.3 mph N/A   Overcast
10:56 AM 32.0 °F 20.1 °F 29.1 °F 89% 29.65 in 3.0 mi West 19.6 mph 25.3 mph N/A   Overcast
11:56 AM 32.9 °F 20.1 °F 29.1 °F 86% 29.63 in 5.0 mi West 24.2 mph 32.2 mph N/A   Overcast
12:56 PM 34.0 °F 22.7 °F 29.1 °F 82% 29.63 in 5.0 mi West 19.6 mph - N/A   Haze
1:56 PM 36.0 °F 25.6 °F 29.1 °F 76% 29.64 in 7.0 mi West 18.4 mph 26.5 mph N/A   Scattered Clouds
2:56 PM 36.9 °F 27.1 °F 30.0 °F 76% 29.66 in 8.0 mi West 17.3 mph 24.2 mph N/A   Partly Cloudy
3:56 PM 36.9 °F 28.2 °F 30.0 °F 76% 29.69 in 8.0 mi West 13.8 mph - N/A   Clear
4:56 PM 34.9 °F 26.2 °F 28.0 °F 76% 29.73 in 10.0 mi West 12.7 mph 19.6 mph N/A   Clear
5:56 PM 34.0 °F 24.6 °F 29.1 °F 82% 29.76 in 10.0 mi West 13.8 mph - N/A   Mostly Cloudy
6:24 PM 33.8 °F 22.5 °F 26.6 °F 75% 29.73 in 10.0 mi WNW 19.6 mph - N/A   Scattered Clouds
6:56 PM 31.1 °F 18.3 °F 25.2 °F 79% 29.80 in 10.0 mi WNW 21.9 mph 26.5 mph N/A   Clear
7:36 PM 30.2 °F 17.8 °F 24.8 °F 80% 29.78 in 10.0 mi NW 19.6 mph 23.0 mph N/A   Mostly Cloudy
7:56 PM 30.0 °F 18.7 °F 25.2 °F 82% 29.83 in 10.0 mi WNW 16.1 mph - N/A   Overcast
8:56 PM 29.1 °F 18.4 °F 25.2 °F 85% 29.86 in 10.0 mi WNW 13.8 mph - N/A   Overcast
9:31 PM 28.4 °F 16.6 °F 24.8 °F 86% 29.82 in 8.0 mi WNW 16.1 mph - N/A   Overcast
9:56 PM 28.0 °F 17.0 °F 25.2 °F 89% 29.89 in 8.0 mi WNW 13.8 mph - N/A   Overcast
10:56 PM 28.0 °F 18.6 °F 24.1 °F 85% 29.91 in 10.0 mi West 10.4 mph - N/A   Overcast
11:56 PM 29.1 °F 17.9 °F 24.1 °F 81% 29.91 in 10.0 mi West 15.0 mph - N/A   Overcast